Weather in Mozdok

Russia / Republic of North Ossetia — Alania     43°44′07″N   44°39′13″E
temp.,
°C
wind,
m/s
gust,
m/s
humid.,
%
clouds,
%
prec.,
mm/h
press.,
hPa
HPBL,
m
22 may, sun
sun2200:00+13wsw22650 0.0 101217
03:00+11wsw22715 0.0 101115
06:00+14s11665 0.0 101038
09:00+21se12460 0.0 1008501
12:00+25ese22350 0.0 10061284
15:00+27e23320 0.0 10031576
18:00+25ese22490 0.0 100115
21:00+19nnw23500 0.0 100219
23 may, mon
mon2300:00+14w34740 0.0 100245
03:00+12w358522 0.0 100475
06:00+14w2282100 0.0 100490
09:00+19n2264100 0.0 1004715
12:00+22e2152100 0.1 10031848
15:00+18nnw3575100 0.8 1002108
18:00+14nw5996100 7.3 1003442
21:00+13wnw4996100 19.8 1006438
24 may, tue
tue2400:00+13w3598100 6.5 1006223
03:00+13w4797100 11.8 1007339
06:00+11n4794100 5.7 1009407
09:00+12wnw3484100 6.8 1011551
12:00+15wsw4571100 0.2 1011878
15:00+15w4571100 0.5 1011700
18:00+14w5683100 0.2 1013364
21:00+12wsw5985100 0.3 1015290
25 may, wed
wed2500:00+11w4992100 0.1 1016251
03:00+11wsw4785100 0.1 1017238
06:00+12wsw3588100 0.0 1019227
09:00+13w3582100 0.6 1019321
12:00+16wsw336746 1.2 10191090
15:00+18wnw336383 2.5 10191198
18:00+17nw137268 1.2 1020201
21:00+13wsw358295 1.2 102268
26 may, thu
thu2600:00+11wsw34855 0.0 102259
03:00+10wnw358998 0.0 102283
06:00+12wsw238275 0.0 1023103
09:00+17wnw336096 0.0 1023730
12:00+20wnw22485 0.0 10221768
15:00+22se01444 0.0 10211892
18:00+20se2359100 0.0 102064
21:00+15se22655 0.0 102014